Location: IoMAS Observatory
(54.1780°N, 4.6265°W)
Time: 00:45:48
(UTC+01:00)

ISS - Pass Details

Date: 24 February 2019
Orbit: 406 x 411 km, 51.6° (Epoch: 22 March)

Event Time Altitude Azimuth Distance (km) Brightness Sun altitude
Rises 07:11:35 0° 195° (SSW) 2,317 -0.1 -10.7°
Reaches altitude 10° 07:14:57 10° 158° (SSE) 1,464 -0.7 -10.2°
Maximum altitude 07:15:55 11° 141° (SE) 1,406 -0.5 -10.0°
Drops below altitude 10° 07:16:53 10° 124° (ESE) 1,467 0.0 -9.9°
Sets 07:20:16 0° 86° (E) 2,334 2.3 -9.4°
